Regional Weather Roundup
Issued by NWS Austin/San Antonio, TX

Home | Current Version | Previous Version | Text Only | Print | Product List | Glossary On
Versions: 1 2 3 4 5 6 7 8 9 10 11 12 13 14 15 16 17 18 19 20 21 22 23 24 25 26 27 28 29 30 31 32 33 34 35 36 37 38 39 40 41 42 43 44 45 46 47 48 49 50
000
ASUS44 KEWX 210402
RWREWX
SOUTH TEXAS REGIONAL WEATHER ROUNDUP
NATIONAL WEATHER SERVICE AUSTIN/SAN ANTONIO TX
1100 PM CDT SUN OCT 20 2019

NOTE: "FAIR" INDICATED FEW OR NO CLOUDS BELOW 12,000 FEET WITH NO
SIGNIFICANT WEATHER AND/OR OBSTRUCTIONS TO VISIBILITY.

* - THESE STATIONS ARE NOT NWS OR FAA STATIONS...AND ARE NOT SUBJECT
    TO NWS AND FAA QUALITY CONTROL.

TXZ171-172-183>190-210500-
TEXAS HILL COUNTRY AND EDWARDS PLATEAU

CITY           SKY/WX    TMP DP  RH WIND       PRES   REMARKS
JUNCTION       CLEAR     79  69  71 S8        29.72S
*LLANO         CLEAR     82  72  69 S10       29.73S
BURNET         CLEAR     77  72  84 S10G22    29.74R
*HORSESHOE BAY CLEAR     81  70  69 S15G24    29.71S
*KERRVILLE     MOCLDY    79  71  77 S10G16    29.76R
*FREDERICKSBRG CLOUDY    78  69  74 S7        29.76R
*ROCKSPRINGS   PTCLDY    77  68  73 S18G25    29.80S
*BOERNE        CLOUDY    77  72  83 S10       29.78R
*CASTROVILLE   CLOUDY    81  70  70 S6        29.75R
HONDO          CLEAR     80  72  76 S12       29.74R
*UVALDE        CLEAR     79  70  73 SE5       29.73R
DEL RIO        CLEAR     83  68  60 SE8       29.68R
LAUGHLIN AFB   CLEAR     82  70  67 SE13      29.70R
SPOFFORD       CLEAR     81  70  70 SE9       29.65R
*EAGLE PASS    CLEAR     82  70  65 SE8G16    29.69R
CARRIZO SPRGS  CLEAR     81  72  74 S10G16    29.68R
*FAITH RANCH   CLEAR     82  73  74 SE14G20   29.69R
$$

TXZ173-191>194-202-209-217>225-228-210500-
CENTRAL AND SOUTH CENTRAL TEXAS

CITY           SKY/WX    TMP DP  RH WIND       PRES   REMARKS
GEORGETOWN     MOCLDY    77  72  84 S15       29.74S
AUSTIN/BERGSTM CLOUDY    81  75  82 S20G29    29.72S
AUSTIN/MABRY   LGT RAIN  81  73  76 S7G18     29.75R
*AUSTIN/EXEC   CLOUDY    75  72  88 S7        29.75R
*LAGO VISTA    CLOUDY    77  73  88 S8        29.75S
SAN MARCOS     CLOUDY    80  75  84 S13G21    29.76R
NEW BRAUNFELS  MOCLDY    80  74  81 S14       29.74R
RANDOLPH AFB   CLOUDY    80  75  84 S14       29.75R
SEGUIN         MOCLDY    78  74  87 S13G21    29.78R
KELLY FIELD    PTCLDY    80  75  83 SE14      29.73R
SAN ANTONIO    MOCLDY    80  74  81 S14       29.75R
STINSON FIELD  MOCLDY    79  75  87 S15G22    29.72R
PLEASANTON     CLEAR     79  74  84 S13       29.73S
*LA GRANGE     CLOUDY    82  77  85 S12G20    29.72F HX  91
*GIDDINGS      MOCLDY    80  77  92 S9        29.76R
*GONZALES      CLOUDY    81  76  85 S14G21    29.74S
$$

TXZ163>164-176>182-195>201-210>213-226-227-235-210500-
SOUTHEAST TEXAS

CITY           SKY/WX    TMP DP  RH WIND       PRES   REMARKS
COLLEGE STN    MOCLDY    82  75  79 S16G23    29.72S
*BRYAN         CLOUDY    82  76  84 S15G21    29.74R
*CALDWELL      MOCLDY    79  74  86 S13       29.74R
*CROCKETT      PTCLDY    77  72  83 S12       29.75S
*BRENHAM       CLOUDY    82  76  82 S14G21    29.74F
HUNTSVILLE     MOCLDY    81  73  76 S13G29    29.74S
CONROE         PTCLDY    79  74  84 S12G23    29.76S
HOUSTON BUSH   PTCLDY    81  74  79 S10       29.76S
HOUSTON HOBBY  MOCLDY    80  74  81 S7        29.77S
*HOUSTON SW AP FAIR      77  76  95 S3        29.78S
PEARLAND       FAIR      81  75  82 S9        29.78F
HOUSTON HOOKS  FAIR      80  73  79 S7G17     29.76R
ELLINGTON FLD  MOCLDY    79  73  83 S9        29.75F
SUGAR LAND     FAIR      80  77  90 S10       29.76S
*HOUSTON EXEC  FAIR      79  77  94 S13       29.77S
*CLEVELAND MUN FAIR      78  77  98 S9        29.78S
*WHARTON       MOCLDY    79  74  86 S9        29.78R
*COLUMBUS      CLOUDY    77  72  84 S12G17    29.77S
*EAGLE LAKE    CLOUDY    82  78  90 S9G17     29.77  HX  90
$$

TXZ214>216-236>238-210500-
THE UPPER TEXAS COAST

CITY           SKY/WX    TMP DP  RH WIND       PRES   REMARKS
*ORANGE        FAIR      80  79  96 S12       29.82S
PORT ARTHUR    FAIR      80  76  87 S12       29.78F
GALVESTON      FAIR      82  78  88 S20       29.78F HX  91
ANGLETON       MOCLDY    81  77  88 S10       29.78S
*BAY CITY      PTCLDY    82  78  89 S7        29.77S HX  91
PALACIOS       PTCLDY    82  76  81 SE14G28   29.76R
$$

TXZ229>234-239>247-210500-
TEXAS COASTAL BEND AND RIO GRANDE PLAINS

CITY           SKY/WX    TMP DP  RH WIND       PRES   REMARKS
VICTORIA       PTCLDY    81  77  88 S12       29.76R
*BEEVILLE      MOCLDY    84  78  81 S13       29.74R HX  94
ROCKPORT       CLEAR     83  77  82 S9        29.75R HX  92
*PORT ARANSAS  CLEAR     82  78  88 S16       29.76R HX  91
*PORT LAVACA   MOCLDY    83  80  90 S6        29.76R HX  94
*INGLESIDE     CLEAR     82  79  90 S13       29.74S HX  93
CORPUS CHRISTI CLOUDY    83  78  85 S17G23    29.75R HX  93
CORPUS NAS     PTCLDY    81  81 100 S18       29.74R HX  92
*ROBSTOWN      MOCLDY    82  77  83 S17       29.75R HX  90
ALICE          CLOUDY    83  76  79 S14       29.74R HX  91
KINGSVILLE NAS CLOUDY    83  78  85 S12       29.74R HX  93
COTULLA        CLEAR     83  74  74 S13G21    29.71R
LAREDO         MOCLDY    82  74  76 SE17      29.71R
$$

TXZ248>255-210500-
DEEP SOUTH TEXAS

CITY           SKY/WX    TMP DP  RH WIND       PRES   REMARKS
BROWNSVILLE    MOCLDY    82  78  88 S8        29.76R HX  91
PORT ISABEL    FAIR      82  79  90 S9        29.76R HX  92
HARLINGEN      CLOUDY    81  79  94 S10       29.75R HX  90
*HEBBRONVILLE  CLOUDY    80  73  79 S6        29.75S
MCALLEN        LGT RAIN  81  78  91 SE12      29.74F FOG
*WESLACO       LGT RAIN  80  78  93 S8        29.74F
FALFURRIAS     CLOUDY    83  78  82 SE12G21   29.73S HX  93
EDINBURG       FAIR      80  77  90 SE12      29.73F
*ZAPATA        NOT AVBL
$$

TXZ213>215-236>238-242>244-246-247-251-254-255-210500-
CMAN STATIONS

STATION/POSITION TIME  TEMP    WIND        PRES    WAVE
                       AIR SEA DIR/SP/G            HT/PER
                 (UTC) (F)     (DEG/KT/KT) (MB)    (FT/S)
SABINE PASS      0330   80 77  160/ 11/ 18 1011.0
NORTH JETTY/GLS  0324   82 77  170/ 16/ 20 1007.6
EAGLE POINT      0324   81 76  170/ 14/ 16 1007.9
MORGANS POINT    0330   80 77  160/  9/ 12 1008.2
PORT O`CONNOR    0330   81 82  160/ 14/ 17 1007.0
PORT ARANSAS     0300   81 80  150/ 15/ 17 1006.9
MALAQUITE BEACH  0330   81 82  140/ 16/ 20 1006.8
BAFFIN BAY       0330   81 81  130/ 13/ 16 1007.2
PORT ISABEL      0330   82 81  150/ 11/ 13 1007.8
$$



USA.gov is the U.S. government's official web portal to all federal, state and local government web resources and services.